Flag for U.S.A. Weather past 2 weeks in El Paso, Texas, U.S.A.

Now
70 °F

Broken clouds.


Feels Like: 68 °F
Forecast: 74 / 94 °F
Wind: 10 mph from North

Location: El Paso International Airport

Current Time: Jul 29, 2014 at 9:16:31 AM

Latest Report: Jul 29, 2014 at 8:51 AM


Visibility: 10 mi

Pressure: 30.02 "Hg

Humidity: 87%

Dew point: 66 °F

Location of El PasoLocation

Historic Weather in El Paso — Graph

°F

El Paso temperature yesterday

Maximum temperature yesterday: 93 °F (at 3:51 PM)
Minimum temperature yesterday: 74 °F (at 6:51 AM)
Average temperature yesterday: 84 °F

Past Weeks' High & Low Weather Summary

 TemperatureHumidityPressure
High103 °F (Jul 19, 3:51 PM)90% (Jul 29, 7:51 AM)30.08 "Hg (Jul 29, 7:51 AM)
Low68 °F (Jul 16, 5:51 AM)11% (Jul 19, 2:51 PM)29.64 "Hg (Jul 17, 5:51 PM)
Average85 °F37%29.84 "Hg
* Reported Jul 14 7:51 AM — Jul 29 7:51 AM, El Paso, Weather by CustomWeather, © 2014

Note: Actual official high and low records may vary slightly from our data, if they occured in-between our weather recording intervals... More about our weather records

Advertising

El Paso weather history for previous 24 hours

 ConditionsComfort  
Time TempWeatherWind HumidityBarometerVisibility
7:51 AM
Jul 29
68 °FThunderstorms. Broken clouds.20 mph90%30.00 "Hg10 mi
6:51 AM69 °FThunderstorms. Partly cloudy.12 mph81%29.96 "Hg8 mi
5:51 AM73 °FPartly cloudy.16 mph69%29.95 "Hg10 mi
4:51 AM73 °FPassing clouds.16 mph71%29.93 "Hg10 mi
3:51 AM74 °FPassing clouds.14 mph67%29.93 "Hg10 mi
2:51 AM75 °FPassing clouds.12 mph64%29.92 "Hg10 mi
1:51 AM75 °FPassing clouds.9 mph64%29.93 "Hg10 mi
12:51 AM75 °FPartly cloudy.15 mph66%29.94 "Hg10 mi
11:51 PM
Jul 28
77 °FPassing clouds.18 mph64%29.94 "Hg10 mi
10:51 PM87 °FPassing clouds.12 mph31%29.92 "Hg10 mi
9:51 PM86 °FPassing clouds.7 mph33%29.90 "Hg10 mi
8:51 PM88 °FScattered clouds.8 mph31%29.90 "Hg10 mi
7:51 PM90 °FScattered clouds.12 mph28%29.88 "Hg10 mi
6:51 PM90 °FScattered clouds.13 mph28%29.88 "Hg10 mi
5:51 PM92 °FScattered clouds.17 mph28%29.88 "Hg10 mi
4:51 PM92 °FScattered clouds.17 mph30%29.91 "Hg10 mi
3:51 PM93 °FScattered clouds.13 mph30%29.92 "Hg10 mi
2:51 PM91 °FScattered clouds.9 mph32%29.95 "Hg10 mi
1:51 PM90 °FScattered clouds.6 mph34%29.97 "Hg10 mi
12:51 PM87 °FBroken clouds.8 mph37%30.01 "Hg10 mi
11:51 AM83 °FBroken clouds.12 mph44%30.02 "Hg10 mi
10:51 AM82 °FBroken clouds.15 mph46%30.03 "Hg10 mi
9:51 AM80 °FPartly sunny.15 mph51%30.04 "Hg10 mi
Weather by CustomWeather, © 2014

See weather overviewHow to use our weather pages